#timestamp,LO_Frequency,Hit,StdDev 
1588647835.1,286047012.2,P
1588647836.0,286047012.2,P
1588647855.8,286047012.6,P
1588647875.7,286047016.7,Y
1588647895.5,286047007.0,P
1588647915.4,286047008.6,P
1588647935.2,286047008.5,P
1588647955.0,286047007.9,Y
1588647955.9,286047007.9,P
1588647975.8,286046999.0,N
1588647995.6,286046996.8,N
1588648015.4,286046996.7,N
1588648035.3,286046998.5,N
1588648055.1,286047000.1,N
1588648075.9,286047002.3,N
1588648095.7,286047002.1,N
1588648115.5,286047000.9,N
1588648135.4,286047002.2,N
1588648155.2,286047005.5,N
1588648175.0,286047006.7,N
1588648176.0,286047006.7,N
1588648195.8,286047010.4,N
1588648215.6,286047011.6,N
1588648235.5,286047015.1,Y
1588648255.3,286047009.5,P
1588648305.2,286047010.4,E
1588648315.1,286047004.0,N
1588648316.0,286047004.0,P
1588648335.8,286046999.3,P
1588648355.7,286046999.4,N
1588648375.5,286046996.7,N
1588648395.3,286046999.3,N
1588648415.2,286046998.1,N
1588648435.0,286047000.7,N
1588648435.9,286047000.7,N
1588648455.8,286047001.0,N
1588648475.6,286046998.8,N
1588648495.4,286046999.6,N
1588648515.3,286046996.6,N
1588648535.1,286046994.9,N
1588648555.9,286046993.6,N
1588648575.7,286046993.0,N
1588648595.5,286046992.2,N
1588648615.4,286046994.6,N
1588648635.2,286046997.8,N
1588648655.1,286046997.7,N
1588648656.0,286046997.7,N
1588648675.8,286046994.9,N
1588648695.6,286046995.1,N
1588648715.5,286046995.2,N
1588648735.3,286046997.3,N
1588648755.1,286046999.6,N
1588648775.9,286046999.3,N
1588648795.7,286046998.6,N
1588648815.6,286047000.2,N
1588648835.4,286047004.0,N
1588648855.2,286047005.0,N
1588648875.1,286047009.0,N
1588648876.0,286047009.0,N
1588648895.8,286047006.2,N
1588648915.7,286047007.8,N
1588648935.5,286047009.9,N
1588648955.3,286047009.6,N
1588648975.2,286047014.0,N
1588648995.0,286047014.9,N
1588648995.9,286047014.9,N
1588649015.7,286047012.9,N
1588649035.6,286047010.9,N
1588649055.4,286047013.7,N
1588649075.3,286047011.4,N
1588649095.1,286047012.7,N
1588649096.0,286047012.7,N
1588649115.8,286047013.0,N
1588649135.7,286047014.3,N
1588649155.5,286047014.4,N
1588649175.4,286047017.1,N
1588649195.2,286047016.8,N
1588649215.0,286047014.9,N
1588649215.9,286047014.9,N
1588649235.8,286047013.0,N
1588649255.6,286047015.0,N
1588649275.4,286047015.1,N
1588649295.3,286047013.0,N
1588649315.1,286047015.8,Y
1588649335.9,286047004.9,P
1588649355.7,286047004.8,N
1588649375.5,286047005.9,N
1588649395.4,286047003.3,N
1588649415.2,286047005.7,N
1588649435.0,286047004.7,N
1588649435.9,286047004.7,N
1588649455.8,286047004.7,N
1588649475.6,286047007.1,Y
1588649495.5,286047002.3,P
1588649515.3,286047003.7,N
1588649535.1,286047005.3,P
1588649555.9,286047006.3,Y
1588649575.7,286047001.8,P
1588649595.6,286047002.1,N
1588649615.4,286047002.4,N
1588649635.2,286046999.9,N
1588649655.1,286046998.4,N
1588649656.0,286046998.4,N
1588649675.8,286047000.8,N
1588649695.6,286047000.3,N
1588649715.5,286047000.3,N
1588649735.3,286047000.5,N
1588649755.2,286047000.9,N
1588649775.9,286046998.6,N
1588649795.7,286047001.2,N
1588649815.6,286046998.5,N
1588649835.4,286047000.9,N
1588649855.2,286047000.1,N
1588649875.1,286047002.4,N
1588649876.0,286047002.4,N
1588649895.8,286047004.3,N
1588649915.7,286047003.6,N
1588649935.5,286047002.9,N
1588649955.3,286047005.5,Y
1588649975.2,286047003.9,P
1588649995.0,286047003.2,N
1588649995.9,286047003.2,N
1588650015.8,286047001.4,N
1588650035.6,286047001.6,N
1588650055.4,286047004.2,Y
1588650075.3,286047001.9,P
1588650095.1,286047001.6,P
1588650115.8,286047001.7,P
1588650135.7,286047001.6,Y
1588650155.5,286046999.9,P
1588650175.4,286047000.9,N
1588650195.2,286046998.2,N
1588650215.0,286047000.9,N
1588650215.9,286047000.9,N
1588650235.8,286047000.2,N
1588650255.6,286047000.2,N
1588650275.4,286047000.3,N
1588650295.3,286046999.8,N
1588650315.1,286047000.3,N
1588650335.9,286047000.4,N
1588650355.7,286047002.1,N
1588650375.5,286047001.8,N
1588650395.4,286047001.4,N
1588650415.2,286047002.0,N
1588650435.1,286047001.6,N
1588650436.0,286047001.6,N
1588650455.8,286047002.5,N
1588650475.6,286047002.8,N
1588650495.5,286047001.6,N
1588650515.3,286047002.1,N
1588650535